Overview Statistics Trail Chart Weather Telemetry Raw packets
 

This is the latest recevied weather packets stored in our database for station/object KD8DNO-13. If no packets are shown the sender has not sent any weather packets the latest 10 day(s).

<< 94 95 96 97 98 99 100 >>
Time Temp. Humidity Pressure Rain* Wind** Luminosity Snow
1787864584 27.78° C 63% 1015.9 hPa 0 mm - - -
1787864283 27.78° C 66% 1015.5 hPa 0 mm - - -
1787863983 26.67° C 67% 1015.5 hPa 0 mm - - -
1787863683 27.22° C 64% 1015.5 hPa 0 mm - - -
1787863383 27.22° C 64% 1015.5 hPa 0 mm - - -
1787863083 27.22° C 64% 1015.9 hPa 0 mm - - -
1787862783 27.78° C 63% 1015.9 hPa 0 mm - - -
1787862483 28.33° C 61% 1015.9 hPa 0 mm - - -
1787862184 27.78° C 63% 1015.9 hPa 0 mm - - -
1787861883 27.22° C 65% 1015.9 hPa 0 mm - - -
1787861584 26.67° C 66% 1015.9 hPa 0 mm - - -
1787861283 26.67° C 67% 1015.9 hPa 0 mm - - -
1787860983 26.11° C 67% 1015.9 hPa 0 mm - - -
1787860683 26.67° C 66% 1015.9 hPa 0 mm - - -
1787860383 26.67° C 67% 1015.9 hPa 0 mm - - -
1787860083 26.67° C 65% 1015.9 hPa 0 mm - - -
1787859783 26.67° C 70% 1015.9 hPa 0 mm - - -
1787859483 27.22° C 60% 1015.9 hPa 0 mm - - -
1787859183 27.78° C 59% 1015.9 hPa 0 mm - - -
1787858883 28.89° C 58% 1015.9 hPa 0 mm - - -
1787858583 29.44° C 55% 1015.9 hPa 0 mm - - -
1787858283 30° C 54% 1015.9 hPa 0 mm - - -
1787857983 29.44° C 55% 1015.9 hPa 0 mm - - -
1787857683 28.89° C 57% 1015.9 hPa 0 mm - - -
1787857383 28.89° C 57% 1015.9 hPa 0 mm - - -

* Rain latest hour (hover to see other rain measurements)
** Current wind speed in m/s (hover to see current wind gust speed)